Gustavus, AK

3:20 AM AKDT on September 21, 2017 (GMT -0800)
Gustavus

Weather History for PAGS - January, 2013

Change the Weather History Date:

Tuesday, January 1, 2013

  Actual Average Record
Temperature  
Mean Temperature 42 °F -  
Max Temperature 48 °F 28 °F 48 °F (2013)
Min Temperature 35 °F 19 °F -20 °F (1950)
Degree Days  
Heating Degree Days 24    
Moisture  
Dew Point 30 °F    
Average Humidity 66    
Maximum Humidity 87    
Minimum Humidity 40    
Precipitation  
Precipitation 0.00 in - - ()
Sea Level Pressure  
Sea Level Pressure 29.95 in    
Wind  
Wind Speed 11 mph (SE)    
Max Wind Speed 31 mph    
Max Gust Speed 48 mph    
Visibility 10 miles    
Events      
Averages and records for this station are not official NWS values.
T = Trace of Precipitation, MM = Missing Value Source: NWS Daily Summary

Daily Weather History Graph

Daily Weather History Graph

Search for Another Location

Airport or City:

Trip Planner

Search our weather history database for the weather conditions in past years. The results will help you decide how hot, cold, wet, or windy it might be!

Date:

Astronomy

Jan. 01, 2013 Rise Set
Actual Time 8:51 AM AKST 3:22 PM AKST
Civil Twilight 7:59 AM AKST 4:14 PM AKST
Nautical Twilight 7:06 AM AKST 5:07 PM AKST
Astronomical Twilight 6:17 AM AKST 5:56 PM AKST
Moon 9:13 PM AKST (1/1) 10:01 AM AKST (1/1)
Length of Visible Light 8h 15m
Length of Day
6h 31m
Waning Gibbous, 82% of the Moon is Illuminated
Jan 1
Waning Gibbous
Jan 4
Last Quarter
Jan 11
New
Jan 18
First Quarter
Jan 26
Full

Hourly Weather History & Observations

Time (AKST) Temp. Windchill Dew Point Humidity Pressure Visibility Wind Dir Wind Speed Gust Speed Precip Events Conditions
12:16 AM 35.6 °F - 32.0 °F 87% 30.24 in 10.0 mi Calm Calm - N/A   Overcast
12:36 AM 35.6 °F 30.7 °F 30.2 °F 81% 30.21 in 10.0 mi NNW 5.8 mph - N/A   Overcast
12:56 AM 35.6 °F - 32.0 °F 87% 30.22 in 10.0 mi Calm Calm - N/A   Overcast
1:16 AM 35.6 °F 31.7 °F 30.2 °F 81% 30.21 in 10.0 mi NE 4.6 mph - N/A   Overcast
1:36 AM 39.2 °F 33.6 °F 33.8 °F 81% 30.20 in 10.0 mi SE 8.1 mph - N/A   Overcast
1:56 AM 42.8 °F 37.5 °F 33.8 °F 70% 30.18 in 10.0 mi SE 9.2 mph - N/A   Mostly Cloudy
2:16 AM 42.8 °F 36.6 °F 32.0 °F 66% 30.19 in 10.0 mi SSE 11.5 mph - N/A   Scattered Clouds
2:36 AM 42.8 °F 37.5 °F 32.0 °F 66% 30.21 in 10.0 mi South 9.2 mph - N/A   Scattered Clouds
3:16 AM 42.8 °F 38.0 °F 32.0 °F 66% 30.20 in 10.0 mi SE 8.1 mph - N/A   Mostly Cloudy
3:36 AM 42.8 °F 37.0 °F 30.2 °F 61% 30.18 in 10.0 mi SSE 10.4 mph - N/A   Scattered Clouds
3:56 AM 42.8 °F 35.8 °F 30.2 °F 61% 30.17 in 10.0 mi SE 13.8 mph 19.6 mph N/A   Mostly Cloudy
4:16 AM 42.8 °F 37.5 °F 30.2 °F 61% 30.17 in 10.0 mi SE 9.2 mph - N/A   Overcast
4:36 AM 42.8 °F 37.5 °F 30.2 °F 61% 30.16 in 10.0 mi SE 9.2 mph 16.1 mph N/A   Overcast
4:56 AM 42.8 °F 35.8 °F 30.2 °F 61% 30.15 in 10.0 mi ESE 13.8 mph 17.3 mph N/A   Overcast
5:16 AM 42.8 °F 36.6 °F 30.2 °F 61% 30.13 in 10.0 mi SE 11.5 mph - N/A   Overcast
5:36 AM 42.8 °F 38.6 °F 30.2 °F 61% 30.13 in 10.0 mi SE 6.9 mph - N/A   Mostly Cloudy
5:56 AM 42.8 °F 35.8 °F 30.2 °F 61% 30.11 in 10.0 mi SE 13.8 mph - N/A   Overcast
6:16 AM 42.8 °F 38.0 °F 30.2 °F 61% 30.06 in 10.0 mi ESE 8.1 mph - N/A   Overcast
6:36 AM 42.8 °F 38.6 °F 30.2 °F 61% 30.11 in 10.0 mi SSE 6.9 mph - N/A   Overcast
6:56 AM 44.6 °F 40.7 °F 28.4 °F 53% 30.06 in 10.0 mi ESE 6.9 mph - N/A   Overcast
7:16 AM 42.8 °F 37.5 °F 30.2 °F 61% 30.08 in 10.0 mi SE 9.2 mph - N/A   Overcast
7:36 AM 44.6 °F 42.2 °F 28.4 °F 53% 30.08 in 10.0 mi SSE 4.6 mph - N/A   Overcast
7:56 AM 42.8 °F - 28.4 °F 57% 30.05 in 10.0 mi Calm Calm - N/A   Mostly Cloudy
8:16 AM 42.8 °F 37.5 °F 28.4 °F 57% 30.03 in 10.0 mi NE 9.2 mph - N/A   Mostly Cloudy
8:36 AM 42.8 °F 36.6 °F 28.4 °F 57% 30.02 in 10.0 mi ESE 11.5 mph - N/A   Overcast
8:56 AM 42.8 °F 35.4 °F 28.4 °F 57% 29.98 in 10.0 mi SE 15.0 mph - N/A   Overcast
9:16 AM 44.6 °F 38.8 °F 28.4 °F 53% 30.00 in 10.0 mi SE 11.5 mph 18.4 mph N/A   Overcast
9:36 AM 44.6 °F 39.7 °F 26.6 °F 49% 30.00 in 10.0 mi SSE 9.2 mph - N/A   Overcast
9:56 AM 46.4 °F 42.4 °F 26.6 °F 46% 30.00 in 10.0 mi SSE 8.1 mph 17.3 mph N/A   Mostly Cloudy
10:16 AM 46.4 °F 39.8 °F 26.6 °F 46% 29.95 in 10.0 mi ESE 16.1 mph 25.3 mph N/A   Mostly Cloudy
10:36 AM 44.6 °F 37.4 °F 28.4 °F 53% 29.93 in 10.0 mi SE 16.1 mph 23.0 mph N/A   Mostly Cloudy
10:56 AM 44.6 °F 40.7 °F 28.4 °F 53% 29.93 in 10.0 mi South 6.9 mph - N/A   Mostly Cloudy
11:16 AM 46.4 °F 44.3 °F 26.6 °F 46% 29.93 in 10.0 mi South 4.6 mph - N/A   Overcast
11:36 AM 44.6 °F 41.4 °F 26.6 °F 49% 29.91 in 10.0 mi NNE 5.8 mph - N/A   Overcast
11:56 AM 42.8 °F 37.5 °F 28.4 °F 57% 29.90 in 10.0 mi SSE 9.2 mph - N/A   Overcast
12:16 PM 48.2 °F - 24.8 °F 40% 29.91 in 10.0 mi SSE 12.7 mph 19.6 mph N/A   Overcast
12:36 PM 46.4 °F 40.4 °F 24.8 °F 43% 29.90 in 10.0 mi South 13.8 mph 48.3 mph N/A   Mostly Cloudy
12:56 PM 44.6 °F 36.4 °F 28.4 °F 53% 29.89 in 10.0 mi SE 20.7 mph 35.7 mph N/A   Mostly Cloudy
1:16 PM 44.6 °F 37.8 °F 28.4 °F 53% 29.87 in 10.0 mi SE 15.0 mph 24.2 mph N/A   Overcast
1:36 PM 44.6 °F 39.2 °F 28.4 °F 53% 29.85 in 10.0 mi SE 10.4 mph - N/A   Overcast
1:56 PM 46.4 °F 39.2 °F 26.6 °F 46% 29.83 in 10.0 mi SE 18.4 mph 25.3 mph N/A   Overcast
2:16 PM 46.4 °F 37.4 °F 26.6 °F 46% 29.82 in 10.0 mi SE 28.8 mph 36.8 mph N/A   Overcast
2:36 PM 44.6 °F 35.9 °F 26.6 °F 49% 29.81 in 10.0 mi SE 23.0 mph 32.2 mph N/A   Overcast
2:56 PM 44.6 °F 36.6 °F 26.6 °F 49% 29.80 in 10.0 mi SE 19.6 mph 24.2 mph N/A   Mostly Cloudy
3:16 PM 44.6 °F 34.6 °F 26.6 °F 49% 29.79 in 10.0 mi SE 31.1 mph 38.0 mph N/A   Overcast
3:36 PM 42.8 °F 32.3 °F 28.4 °F 57% 29.80 in 10.0 mi SE 29.9 mph 41.4 mph N/A   Overcast
3:56 PM 41.0 °F 30.0 °F 30.2 °F 65% 29.79 in 7.0 mi SE 28.8 mph 42.6 mph N/A   Overcast
4:16 PM 39.2 °F 29.6 °F 32.0 °F 75% 29.78 in 9.0 mi SE 19.6 mph 32.2 mph N/A   Overcast
4:36 PM 39.2 °F 29.6 °F 33.8 °F 81% 29.78 in 10.0 mi SE 19.6 mph 25.3 mph N/A   Overcast
4:56 PM 41.0 °F 31.1 °F 32.0 °F 70% 29.77 in 10.0 mi SSE 23.0 mph 32.2 mph N/A   Overcast
5:16 PM 41.0 °F 30.0 °F 32.0 °F 70% 29.76 in 10.0 mi SE 28.8 mph 39.1 mph N/A   Overcast
5:36 PM 41.0 °F 30.2 °F 33.8 °F 76% 29.76 in 10.0 mi SE 27.6 mph 38.0 mph N/A   Overcast
5:56 PM 41.0 °F 31.9 °F 32.0 °F 70% 29.75 in 10.0 mi SE 19.6 mph 34.5 mph N/A   Overcast
6:16 PM 41.0 °F 30.9 °F 32.0 °F 70% 29.76 in 10.0 mi SE 24.2 mph 33.4 mph N/A   Overcast
6:36 PM 41.0 °F 30.9 °F 33.8 °F 76% 29.76 in 10.0 mi SE 24.2 mph 31.1 mph N/A   Overcast
6:56 PM 41.0 °F 30.9 °F 33.8 °F 76% 29.75 in 10.0 mi SSE 24.2 mph 32.2 mph N/A   Overcast
7:16 PM 39.2 °F 29.3 °F 33.8 °F 81% 29.76 in 10.0 mi SE 20.7 mph 31.1 mph N/A   Overcast
7:36 PM 39.2 °F 28.3 °F 33.8 °F 81% 29.76 in 10.0 mi SSE 25.3 mph 32.2 mph N/A   Overcast
7:56 PM 39.2 °F 30.2 °F 33.8 °F 81% 29.77 in 10.0 mi SSE 17.3 mph 29.9 mph N/A   Overcast
8:16 PM 39.2 °F 30.5 °F 33.8 °F 81% 29.78 in 10.0 mi SSE 16.1 mph 26.5 mph N/A   Overcast
8:36 PM 39.2 °F 31.2 °F 33.8 °F 81% 29.80 in 10.0 mi SSE 13.8 mph 23.0 mph N/A   Overcast
8:56 PM 39.2 °F 30.2 °F 33.8 °F 81% 29.80 in 9.0 mi SE 17.3 mph - N/A   Overcast
9:36 PM 37.4 °F 29.3 °F 33.8 °F 87% 29.82 in 10.0 mi SE 12.7 mph - N/A   Overcast
9:56 PM 37.4 °F 32.8 °F 33.8 °F 87% 29.82 in 10.0 mi SSE 5.8 mph - N/A   Overcast
10:16 PM 37.4 °F 30.3 °F 33.8 °F 87% 29.82 in 10.0 mi SE 10.4 mph - N/A   Overcast
10:36 PM 37.4 °F 30.8 °F 33.8 °F 87% 29.82 in 10.0 mi SE 9.2 mph 16.1 mph N/A   Overcast
10:56 PM 37.4 °F 29.8 °F 33.8 °F 87% 29.82 in 10.0 mi SE 11.5 mph - N/A   Overcast
11:16 PM 37.4 °F 29.3 °F 33.8 °F 87% 29.83 in 10.0 mi ESE 12.7 mph - N/A   Overcast
11:36 PM 37.4 °F 29.3 °F 33.8 °F 87% 29.83 in 10.0 mi SE 12.7 mph - N/A   Overcast
11:56 PM 37.4 °F 29.8 °F 33.8 °F 87% 29.83 in 10.0 mi ESE 11.5 mph - N/A   Mostly Cloudy